Location: Grundy Observatory
(40.0525°N, 76.3328°W)
Time: 11:26:36
(UTC-04:00)

Daily predictions for brighter satellites

Satellite Brightness Start Highest point End
(mag) Time Altitude Azimuth Time Altitude Azimuth Time Altitude Azimuth
SMAP 3.1 18:33:59 10° SSE 18:38:39 90° NE 18:43:20 10° NNW
CZ-4C R/B 2.3 18:36:42 10° SSW 18:41:40 55° ESE 18:47:18 10° NE
Cosmos 2366 rocket 4.2 18:35:41 10° S 18:41:52 78° W 18:48:04 10° N
CZ-4 R/B 1.4 18:41:21 10° SSE 18:45:32 86° ENE 18:49:41 10° NNW
Cosmos 1805 Rocket 4.5 18:42:18 10° NNE 18:46:05 27° ENE 18:49:51 10° SE
MTI 3.8 18:42:59 10° NNE 18:46:09 59° E 18:49:18 10° S
Meteor 1-28 Rocket 3.1 18:43:43 10° NNE 18:47:31 82° ESE 18:51:15 10° S
Abrixas rocket 4.1 18:46:11 10° NW 18:48:41 20° N 18:51:11 10° NE
IRS-1A Rocket 4.4 18:43:08 10° SSE 18:49:00 82° ENE 18:54:57 10° NNW
Meteor 2-1 Rocket 4.4 18:48:51 10° S 18:54:40 85° W 19:00:38 10° N
Cosmos 1269 Rocket 4.1 18:50:07 10° S 18:55:16 59° ESE 19:00:28 10° NNE
Aureole 2 Rocket 3.4 18:51:45 10° N 18:55:25 34° ENE 18:59:09 10° SE
GRACE-2 3.7 18:53:18 10° SSE 18:55:47 52° E 18:58:18 10° N
YAOGAN 1 2.5 18:52:49 10° SSE 18:57:08 80° ENE 19:01:28 10° N
Cosmos 1626 3.7 18:53:59 10° NNW 18:57:31 41° W 19:01:02 10° SSW
Iridium 4 Rocket 4.0 18:53:54 10° SSE 18:59:19 48° E 19:04:58 10° NNE
Cosmos 1633 Rocket 4.3 18:56:02 10° NNE 18:59:22 21° ENE 19:02:42 10° ESE
BREEZE-M DEB (TANK) 1.3 18:58:14 10° WSW 19:00:22 59° NNW 19:02:13 13° NE
Cosmos 1315 Rocket 2.9 18:56:44 10° N 19:00:51 86° W 19:04:58 10° S
GRACE-1 3.5 18:59:52 10° S 19:02:26 76° E 19:05:00 10° N
CZ-4 R/B 4.4 18:58:45 10° SSE 19:02:53 84° ENE 19:07:03 10° N
Cosmos 1484 Rocket 4.2 19:00:41 10° S 19:04:12 41° W 19:07:44 10° NNW
Cosmos 1452 Rocket 4.3 19:01:10 10° NNW 19:06:18 56° WSW 19:11:25 10° S
SKYMED 3 4.5 19:03:02 10° NNE 19:07:22 70° E 19:11:41 10° S
Cosmos 44 Rocket 3.6 19:02:44 10° SW 19:07:24 64° WNW 19:12:05 10° NNE
Cosmos 2333 4.2 19:02:32 10° NNW 19:08:17 77° ENE 19:14:02 10° SSE
Cosmos 2084 3.7 19:07:17 10° NNW 19:10:52 37° NE 19:13:41 15° ESE
Cosmos 1908 3.7 19:07:26 10° SSW 19:11:19 66° W 19:15:13 10° N
SPOT 3 Rocket 3.5 19:06:27 10° SSE 19:11:35 67° ENE 19:16:47 10° N
PSLV R/B 3.4 19:10:18 10° WSW 19:13:21 50° SSE 19:15:01 23° E
Cosmos 2221 2.6 19:09:14 10° S 19:13:33 84° W 19:17:56 10° N
Cosmos 1934 Rocket 4.3 19:07:40 10° SSE 19:13:40 46° E 19:19:42 10° NNE
Cosmos 2237 Rocket 3.0 19:09:12 10° N 19:14:15 31° ENE 19:18:22 14° ESE
Cosmos 1000 Rocket 4.4 19:09:21 10° N 19:15:34 69° E 19:21:41 10° SSE
Cosmos 1821 Rocket 3.9 19:11:08 10° S 19:17:14 66° E 19:23:27 10° NNE
Cosmos 921 Rocket 4.4 19:13:51 10° NNW 19:18:02 43° W 19:22:07 10° S
SJ-6B 4.4 19:21:00 17° NE 19:21:00 17° NE 19:22:40 10° NNE
Cosmos 1110 Rocket 4.4 19:15:37 10° N 19:20:38 41° ENE 19:25:36 10° SE
Cosmos 2227 Rocket 2.8 19:15:41 10° SSE 19:20:43 34° ESE 19:25:47 10° NE
H-2A R/B 3.8 19:20:16 20° ESE 19:21:43 26° ENE 19:24:59 10° NNE
Cosmos 2239 Rocket 4.4 19:15:56 10° S 19:22:01 72° E 19:28:10 10° NNE
SKYMED 2 3.8 19:21:02 10° N 19:25:22 73° WNW 19:29:42 10° SSW
Cosmos 2098 Rocket 3.5 19:22:05 10° S 19:26:50 86° E 19:32:56 10° N
SL-16 R/B 3.6 19:23:39 10° N 19:27:27 18° NE 19:28:01 18° ENE
Cosmos 1300 2.6 19:28:54 10° S 19:32:40 63° E 19:36:29 10° NNE
Cosmos 2360 Rocket 4.5 19:28:39 10° NW 19:33:19 27° WSW 19:37:59 10° SSW
BREEZE-M DEB (TANK) 4.1 19:34:53 10° WSW 19:35:57 13° SW 19:37:07 10° S
Atlas Centaur 2 4.3 19:37:37 10° SSW 19:38:19 10° SSW 19:39:03 10° S
Gbstr 26 Del rocket 3.7 19:33:31 10° NW 19:38:34 76° SW 19:43:46 15° SE
Cosmos 1980 3.8 19:33:37 10° NNW 19:39:08 51° ENE 19:43:00 19° SE
ALOS 2.2 19:34:38 10° SSE 19:39:18 89° E 19:44:01 10° NNW
FENGYUN 3A 3.6 19:36:16 10° SSE 19:41:40 87° ENE 19:47:07 10° NNW
Meteor 2-10 3.8 19:38:46 10° S 19:43:47 79° E 19:48:57 10° NNE
SWAS 4.3 19:44:04 10° SSW 19:48:19 77° ESE 19:50:51 24° NNE
Cosmos 2123 Rocket 3.9 19:43:11 10° N 19:49:27 73° E 19:55:44 10° SSE
Cosmos 2251 Rocket 3.6 19:44:59 10° S 19:50:06 53° ESE 19:54:09 16° NNE
COSMOS 2428 3.8 19:45:49 10° NW 19:51:11 45° WSW 19:56:33 10° S
Cosmos 1605 Rocket 3.9 19:45:51 10° S 19:51:50 62° E 19:57:50 10° NNE
Meteor 2-3 Rocket 4.2 19:47:18 10° N 19:52:38 38° ENE 19:53:21 36° E
Cosmos 2219 4.2 19:47:31 10° SW 19:53:01 46° WNW 19:58:33 10° NNE
Cosmos 2333 Rocket 2.2 19:48:19 10° NNW 19:54:06 84° WSW 19:59:51 10° SSE
Cosmos 1470 Rocket 4.3 19:50:04 10° N 19:53:14 34° NE 19:53:14 34° NE
NOSS 0 Rocket 3.8 19:50:05 10° NNW 19:56:18 89° ENE 20:02:26 10° SSE
Cosmos 2297 Rocket 2.2 19:52:07 10° S 19:57:39 59° ESE 20:00:57 24° NE
Cosmos 1726 3.8 19:54:45 10° SW 19:58:08 34° WNW 20:01:32 10° N
Hubble Space Telescope 2.9 19:57:51 10° SSW 20:00:20 16° S 20:00:30 16° S
USA 267 4.0 20:04:43 30° SE 20:04:43 30° SE 20:10:02 10° S
Sich 1 3.6 20:01:14 10° NNW 20:05:33 58° W 20:09:53 10° S
Meteor 2-17 Rocket 4.5 20:01:37 10° SSE 20:07:25 50° E 20:13:17 10° NNE
Cosmos 2082 3.6 20:03:24 10° SSW 20:09:05 72° ESE 20:12:12 28° NNE
Thor Agena Rocket 3.6 20:06:35 10° N 20:11:40 74° WNW 20:16:41 10° SSW
Cosmos 1331 Rocket 4.1 20:07:55 10° NNW 20:13:08 76° WSW 20:16:38 21° S
Resurs 01 Rocket 3.8 20:21:17 15° N 20:21:17 15° N 20:22:07 10° N
Cosmos 2219 Rocket 3.3 20:14:14 10° NW 20:19:29 42° WSW 20:24:43 10° S
Cosmos 1447 Rocket 4.3 20:20:18 10° N 20:26:38 78° E 20:29:04 40° SSE
BREEZE-M DEB (TANK) 3.4 20:22:50 10° WNW 20:29:58 48° N 20:29:58 48° N
CZ-4C R/B 4.1 20:26:05 10° W 20:30:34 26° NW 20:35:36 10° NNE
Cosmos 2228 Rocket 3.5 20:29:14 10° SSW 20:33:42 62° W 20:38:16 10° N
Cosmos 1302 Rocket 4.2 20:38:06 10° NNW 20:42:54 68° WNW 20:42:54 68° WNW
Meteor 1-27 4.5 20:42:31 10° SSW 20:48:11 67° W 20:54:00 10° N
Cosmos 2237 Rocket 3.4 20:53:06 10° NW 20:58:20 38° WSW 21:00:18 29° SW
MOS 1-B Rocket 4.3 21:03:12 58° WSW 21:03:27 59° W 21:09:35 10° NNW
Cosmos 2227 Rocket 3.7 20:59:39 10° WSW 21:04:43 33° WNW 21:08:04 19° N
SL-16 R/B 3.3 21:06:30 10° NNW 21:09:56 38° NW 21:09:56 38° NW
Cosmos 2297 Rocket 4.3 21:37:51 10° WSW 21:42:06 21° NW 21:42:52 21° NW
